Hourly Data Report for October 30, 2013

All times are specified in Local Standard Time (LST). Add 1 hour to adjust for Daylight Saving Time where and when it is observed.

PETAWAWA AWOS 2
ONTARIO

45°57'00.000" N
77°19'00.000" W
130.10 m
6106396
71625
YWA

Download Data

Hourly Data (October 2013)
Hourly Data Report for October 30, 2013
Temp Definition
°C
Dew Point Temp Definition
°C
Rel Hum Definition
%
Wind Dir Definition
10's deg

Wind Spd Definition
km/h
Visibility Definition
km
Stn Press Definition
kPa
Hmdx Definition


Wind Chill Definition


Weather Definition


TIME
00:00 -3.1 -5.1 86   0 15.0 100.94      
01:00 -1.6 -5.0 78   0 15.0 100.87      
02:00 -1.6 -3.9 84 24 4 15.0 100.84   -3  
03:00 -1.2 -4.0 81 17 6 15.0 100.80   -3  
04:00 -1.4 -3.9 83   0 15.0 100.78      
05:00 -0.9 -3.8 81   0 15.0 100.79      
06:00 -1.4 -3.2 88 21 4 15.0 100.80   -3  
07:00 -1.2 -2.9 88   0 15.0 100.80      
08:00 0.6 -1.7 85 24 4 15.0 100.84      
09:00 2.0 -1.2 79   0 15.0 100.88      
10:00 3.6 -2.3 65 23 7 15.0 100.85      
11:00 4.4 -3.9 55 24 6 15.0 100.83      
12:00 4.8 -4.0 53 28 4 15.0 100.73      
13:00 5.5 -3.8 51 24 9 15.0 100.67      
14:00 6.1 -3.1 52 22 6 15.0 100.57      
15:00 6.5 -2.7 52 19 6 15.0 100.55      
16:00 6.4 -2.2 54 18 7 15.0 100.56      
17:00 3.2 -1.1 73 18 6 15.0 100.57      
18:00 4.0 -0.2 74 13 4 15.0 100.54      
19:00 4.4 0.3 75 16 7 15.0 100.49      
20:00 4.2 0.9 79 17 4 15.0 100.50      
21:00 4.7 1.5 80 15 6 15.0 100.48      
22:00 5.3 2.5 82 11 6 15.0 100.46      
23:00 5.2 3.1 86 13 9 15.0 100.32      

Notes on Data Quality.

Legend

  • E = Estimated
  • M = Missing
  • NA = Not Available
  • ‡ = Partner data that is not subject to review by the National Climate Archives
Date modified: